Other Surface Observations
Issued by NWS

Home | Current Version | Previous Version | Text Only | Print | Product List | Glossary On
Versions: 1 2 3 4 5 6 7 8 9 10 11 12 13 14 15 16 17 18 19 20 21 22 23 24 25 26 27 28 29 30 31 32 33 34 35 36 37 38 39 40 41 42 43 44 45 46 47 48 49 50
000
SXUS52 KTAE 310106
OSOTAE
OSOTAE
North Florida/South Alabama/Southwest Georgia Weather Roundup
National Weather Service Tallahassee Florida
900 PM EDT THU MAR 30 2017

Note: "fair" indicates few or no clouds below 12,000 feet with no
significant weather and/or obstructions to visibility.

!FLZ017-115-028-034-025-310200
...North Florida...

CITY           SKY/WX    TMP DP  RH WIND       PRES   REMARKS
TALLAHASSEE    CLOUDY    72  64  76 SE6       29.86R
APALACHICOLA   CLOUDY    73  71  93 S14       29.87R
PERRY          MOCLDY    71  65  81 CALM      29.89S
CROSS CITY     PTCLDY    68  64  88 S5        29.89F
JACKSONVILLE   MOCLDY    76  60  57 S9        29.88R
$$

!FLZ112-006-005-002-011-310200
...Florida Panhandle...

CITY           SKY/WX    TMP DP  RH WIND       PRES   REMARKS
MARIANNA       LGT RAIN  74  63  68 S5        29.84S
BONIFAY        RAIN      69  69 100 CALM      29.86R FOG
PANAMA CITY NW RAIN      71  69  93 S5        29.84F VSB 1
TYNDALL AFB    RAIN      72  70  94 SE12      29.85S
TYND DRONE APT TSTM      72  70  94 SE9       29.85S
DE FUNIAK SPR  HVY RAIN  64  64 100 S8        29.86S
EGLIN AFB      LGT RAIN  67  65  96 SE9       29.81F
DESTIN         RAIN      69  68  96 SE3       29.82F
HURLBURT       LGT RAIN  65  64  95 E6        29.79F
CRESTVIEW      LGT RAIN  65  63  93 SE7       29.83F
PENSACOLA      CLOUDY    67  63  87 E18G25    29.69F
$$

!ALZ063-066-310200
...South Alabama...

CITY           SKY/WX    TMP DP  RH WIND       PRES   REMARKS
DOTHAN         RAIN      68  67  96 W7        29.89R
OZARK CAIRNS   RAIN      68  65  93 S9        29.85F
FT RUCKER HELI LGT RAIN  66  66 100 S8G17     29.84F FOG
RUCKER HELI 3  RAIN      66  64  93 S7        29.84F FOG
RUCKER HELI 2  RAIN      67  66  95 S6        29.84F FOG
FLORALA APT    RAIN      65  63  93 S7        29.85S FOG
ANDALUSIA      RAIN      66  63  90 E15G23    29.77F FOG
TROY           RAIN      63  63 100 W3        29.88R FOG
EUFALA         LGT RAIN  76  58  53 SW15G24   29.84R
MOBILE         PTCLDY    62  59  90 CALM      29.77R
$$

!GAZ120>161-310200
...Southwest and South Central Georgia...

CITY           SKY/WX    TMP DP  RH WIND       PRES   REMARKS
THOMASVILLE    FAIR      73  63  68 SW8       29.89R
BAINBRIDGE     CLOUDY    73  59  60 S6        29.86S
MOODY AFB      CLOUDY    76  58  52 SW7       29.86R
VALDOSTA       CLOUDY    73  59  61 S5        29.88R
MOULTRIE       CLOUDY    73  59  60 S7        29.88S
BLAKELY        CLOUDY    79  55  44 CALM      29.85S
ALBANY         CLOUDY    78  57  48 S13       29.86S
TIFTON         NOT AVBL
FITZGERALD     MOCLDY    75  63  64 SW6       29.88S
CORDELE        FAIR      81  57  44 S7        29.85F
AMERICUS       FAIR      75  54  46 S6        29.85F
HOMERVILLE     FAIR      77  59  53 SW5       29.88R
$$

!GMZ750-755-770-775-310200
...Coastal and Buoy Obs...

STATION/POSITION TIME  TEMP    WIND        PRES    VSBY  WAVE
                       AIR SEA DIR/SP/G                  HT/PER
                 (UTC) (F)     (DEG/KT/KT) (MB)    (MI)  (FT/S)
KEATON BEACH     0100   73     180/ 13/ 14 1011.7F
CEDAR KEY        0000   73     220/  8/ 10 1012.8S
C TOWER          0100   71     170/ 16/ 18 1012.0R
APALACHICOLA BUO 2350   72 72  160/ 14/ 16 1011.2          3/ 5
PANAMA CITY BUOY 2350   73 72  150/ 14/ 16 1010.0          4/ 6
MOBILE BUOY      0050   69 72  120/ 17/ 23 1007.0F         4/ 7
ORANGE BCH AL BU 2350   67 71   90/ 17/ 21 1007.1          3/ 6
$$




USA.gov is the U.S. government's official web portal to all federal, state and local government web resources and services.